Weather reports worldwide

Advertisment
Lyon/Bron, France (7480): temperature & dewpoint: 02.07.2020 06:00:00 - 08.07.2020 06:00:00 (CEST)Lyon/Bron, France (7480): temperature 5cm: 02.07.2020 06:00:00 - 08.07.2020 06:00:00 (CEST)Lyon/Bron, France (7480): temperature -20cm: 02.07.2020 06:00:00 - 08.07.2020 06:00:00 (CEST)Lyon/Bron, France (7480): wind speed & gusts: 02.07.2020 06:00:00 - 08.07.2020 06:00:00 (CEST)Lyon/Bron, France (7480): wind direction: 02.07.2020 06:00:00 - 08.07.2020 06:00:00 (CEST)Lyon/Bron, France (7480): reduced air pressure: 02.07.2020 06:00:00 - 08.07.2020 06:00:00 (CEST)Lyon/Bron, France (7480): visibility: 02.07.2020 06:00:00 - 08.07.2020 06:00:00 (CEST)Lyon/Bron, France (7480): sunshine duration: 02.07.2020 06:00:00 - 08.07.2020 06:00:00 (CEST)Lyon/Bron, France (7480): precipitation: 02.07.2020 06:00:00 - 08.07.2020 06:00:00 (CEST)
Date & Time tt [°C] td [°C] tt 5cm [°C] tt -20cm [°C] ff [km/h] ff [kn] fx [km/h] fx [kn] dd ppp [hPa] vv [km] sd [min] rr [mm]
08.07.2020 06:00:00 14,3 8,0 8,8 24,9 5 3 9 5 NNW 1018,5 49 0 0,0
08.07.2020 05:00:00 14,1 8,7 9,6 25,1 5 3 9 5 S 1018,3 44 0 0,0
08.07.2020 04:00:00 14,4 8,1 9,7 25,3 6 3 8 4 SSE 1018,4 44 0 0,0
08.07.2020 03:00:00 16,2 8,7 10,9 25,5 2 1 9 5 W 1018,4 50 0 0,0
08.07.2020 02:00:00 16,0 7,7 10,7 25,7 4 2 13 7 WNW 1018,6 50 0 0,0
08.07.2020 01:00:00 17,1 7,4 11,4 25,9 7 4 9 5 NW 1018,5 53 0 0,0
08.07.2020 00:00:00 18,5 7,9 12,8 26,0 2 1 11 6 NW 1018,4 55 0 0,0
07.07.2020 23:00:00 20,3 7,3 16,9 26,1 8 4 14 8 N 1018,1 54 0 0,0
07.07.2020 22:00:00 21,5 7,0 19,0 26,1 9 5 20 11 N 1017,8 57 5 0,0
07.07.2020 21:00:00 24,0 6,7 23,8 26,0 14 8 25 14 N 1017,2 46 60 0,0
07.07.2020 20:00:00 25,3 6,5 28,0 25,9 18 10 34 18 N 1017,3 40 60 0,0
07.07.2020 19:00:00 26,0 5,5 30,5 25,6 19 11 35 19 N 1017,0 28 60 0,0
07.07.2020 18:00:00 25,8 5,9 31,6 25,2 22 12 36 19 N 1017,1 24 60 0,0
07.07.2020 17:00:00 25,8 5,9 33,1 24,9 22 12 39 21 N 1017,6 25 60 0,0
07.07.2020 16:00:00 26,0 6,6 32,3 24,5 22 12 41 22 N 1018,0 26 60 0,0
07.07.2020 15:00:00 25,0 6,7 31,7 24,2 22 12 42 23 N 1018,4 26 60 0,0
07.07.2020 14:00:00 24,5 6,7 30,4 24,0 22 12 49 26 N 1018,6 22 60 0,0
07.07.2020 13:00:00 23,5 6,3 29,5 23,9 24 13 54 29 N 1019,0 22 60 0,0
07.07.2020 12:00:00 22,6 6,4 27,9 23,8 27 14 44 24 N 1019,3 23 60 0,0
07.07.2020 11:00:00 21,7 6,4 25,7 23,9 26 14 44 24 N 1019,3 29 60 0,0
07.07.2020 10:00:00 20,3 7,6 23,6 24,0 26 14 43 23 N 1019,5 36 60 0,0
07.07.2020 09:00:00 18,7 7,8 19,5 24,2 24 13 36 19 N 1019,4 48 60 0,0
07.07.2020 08:00:00 16,4 7,3 13,9 24,4 16 9 29 16 NNW 1019,7 60 60 0,0
07.07.2020 07:00:00 14,5 6,6 13,1 24,7 19 11 31 17 NNW 1019,7 57 36 0,0
07.07.2020 06:00:00 14,5 6,3 12,9 24,9 16 9 24 13 NNW 1019,9 44 0 0,0
07.07.2020 05:00:00 14,6 6,2 12,8 25,1 13 7 23 13 NNW 1019,8 46 0 0,0
07.07.2020 04:00:00 15,1 6,4 13,3 25,3 15 8 22 12 NNW 1020,2 47 0 0,0
07.07.2020 03:00:00 15,8 6,5 14,2 25,6 15 8 22 12 NNW 1020,4 47 0 0,0
07.07.2020 02:00:00 16,8 6,6 15,3 25,8 13 7 31 17 NNW 1020,3 50 0 0,0
07.07.2020 01:00:00 17,8 6,6 16,5 26,0 20 11 35 19 NNW 1020,4 50 0 0,0
07.07.2020 00:00:00 18,8 6,6 17,7 26,1 23 12 35 19 NNW 1020,4 51 0 0,0
06.07.2020 23:00:00 19,7 6,4 18,4 26,2 21 11 37 20 NNW 1020,2 55 0 0,0
06.07.2020 22:00:00 21,3 6,4 20,0 26,3 24 13 39 21 NNW 1019,5 57 5 0,0
06.07.2020 21:00:00 22,8 6,5 22,7 26,2 23 12 42 23 NNW 1019,0 28 60 0,0
06.07.2020 20:00:00 24,3 6,1 26,3 26,1 28 15 45 25 NNW 1018,8 21 60 0,0
06.07.2020 19:00:00 25,0 6,2 28,6 25,9 24 13 44 24 N 1018,5 24 60 0,0
06.07.2020 18:00:00 25,3 5,5 30,2 25,6 26 14 48 26 NNW 1018,7 21 60 0,0
06.07.2020 17:00:00 25,5 7,6 31,9 25,2 23 12 44 24 N 1018,5 22 60 0,0
06.07.2020 16:00:00 25,4 7,5 31,4 25,0 25 14 42 23 NNW 1018,4 23 60 0,0
06.07.2020 15:00:00 25,3 10,3 30,8 24,7 25 13 42 23 NNW 1018,7 26 60 0,0
06.07.2020 14:00:00 24,6 11,5 26,8 24,7 21 11 42 23 N 1018,8 20 48 0,0
06.07.2020 13:00:00 24,0 11,7 25,3 24,6 22 12 43 23 NW 1019,0 29 42 0,0
06.07.2020 12:00:00 22,6 13,4 21,9 24,7 27 15 43 23 NW 1019,0 21 20 0,0
06.07.2020 11:00:00 21,5 14,6 22,2 24,7 23 12 35 19 NNW 1019,2 59 0 0,0
06.07.2020 10:00:00 20,2 15,2 17,7 24,8 17 9 47 25 NNW 1019,2 49 0 0,0
06.07.2020 09:00:00 21,4 15,7 21,6 25,0 22 12 46 25 WNW 1018,8 53 9 0,0
06.07.2020 08:00:00 22,1 15,7 21,0 25,0 16 9 24 13 NW 1018,0 35 25 0,0
06.07.2020 07:00:00 21,2 16,2 17,9 25,3 7 4 13 7 NNE 1018,0 57 0 0,0
06.07.2020 06:00:00 20,2 15,8 17,9 25,5 8 4 15 8 NNW 1018,0 59 0 0,0
06.07.2020 05:00:00 20,6 15,8 15,6 25,7 8 4 14 7 NNW 1017,7 59 0 0,0
06.07.2020 04:00:00 19,7 15,8 15,7 25,9 2 1 10 6 NW 1018,0 59 0 0,0
06.07.2020 03:00:00 21,0 16,2 16,2 26,0 9 5 11 6 N 1018,2 60 0 0,0
06.07.2020 02:00:00 21,0 15,8 16,6 26,2 7 4 10 5 NNW 1018,5 60 0 0,0
06.07.2020 01:00:00 22,6 15,9 18,5 26,4 7 4 12 6 N 1018,3 60 0 0,0
06.07.2020 00:00:00 24,1 16,1 22,3 26,5 8 4 16 9 N 1018,0 60 0 0,0
05.07.2020 23:00:00 25,2 15,8 23,0 26,5 10 6 19 10 NNW 1017,6 60 0 0,0
05.07.2020 22:00:00 26,2 15,3 24,2 26,5 11 6 21 11 N 1017,0 60 6 0,0
05.07.2020 21:00:00 28,3 14,9 28,3 26,4 15 8 26 14 N 1016,7 42 60 0,0
05.07.2020 20:00:00 29,7 15,4 32,6 26,2 16 9 31 17 N 1016,4 54 60 0,0
05.07.2020 19:00:00 30,2 15,9 31,8 26,0 15 8 31 17 N 1016,5 51 56 0,0
05.07.2020 18:00:00 30,3 16,3 35,6 25,6 17 9 33 18 NNE 1016,9 36 60 0,0
05.07.2020 17:00:00 30,5 16,5 36,8 25,3 13 7 30 16 NNE 1017,2 40 58 0,0
05.07.2020 16:00:00 29,6 16,8 32,9 24,9 21 11 32 17 NNE 1017,6 55 53 0,0
05.07.2020 15:00:00 28,4 16,3 30,6 24,6 13 7 30 16 N 1018,2 55 29 0,0
05.07.2020 14:00:00 28,3 16,2 32,3 24,2 10 5 25 13 NNW 1018,9 60 53 0,0
05.07.2020 13:00:00 27,0 16,0 31,8 24,0 9 5 27 14 NE 1019,4 48 55 0,0
05.07.2020 12:00:00 26,2 15,9 32,3 23,9 8 5 23 12 NE 1019,9 47 60 0,0
05.07.2020 11:00:00 25,2 15,2 30,3 23,9 9 5 22 12 N 1020,4 47 58 0,0
05.07.2020 10:00:00 23,8 14,5 30,2 24,0 10 5 18 10 NW 1020,8 50 60 0,0
05.07.2020 09:00:00 23,0 13,7 23,4 24,1 5 3 13 7 NNW 1021,1 40 53 0,0
05.07.2020 08:00:00 20,1 13,5 17,4 24,2 3 2 7 4 S 1021,4 49 45 0,0
05.07.2020 07:00:00 17,9 12,6 14,4 24,4 4 2 6 4 E 1021,6 47 37 0,0
05.07.2020 06:00:00 17,0 12,3 13,8 24,6 2 1 6 3 S 1021,6 43 0 0,0
05.07.2020 05:00:00 17,1 12,4 14,0 24,8 3 2 7 4 WNW 1021,6 45 0 0,0
05.07.2020 04:00:00 17,5 12,2 14,0 25,0 2 1 5 3 SSE 1021,6 45 0 0,0
05.07.2020 03:00:00 18,2 12,0 14,2 25,2 3 2 5 3 ESE 1021,9 45 0 0,0
05.07.2020 02:00:00 18,4 11,9 14,4 25,4 0 0 4 2 N 1021,8 45 0 0,0
05.07.2020 01:00:00 19,6 12,1 15,1 25,5 3 2 10 5 ESE 1021,5 44 0 0,0
05.07.2020 00:00:00 21,0 11,6 16,5 25,6 4 2 8 4 N 1021,2 52 0 0,0
04.07.2020 23:00:00 22,0 11,1 18,2 25,7 4 2 12 6 NNE 1021,1 53 0 0,0
04.07.2020 22:00:00 23,3 11,0 20,9 25,8 7 4 17 9 NNE 1020,4 58 6 0,0
04.07.2020 21:00:00 25,0 11,2 24,3 25,7 13 7 24 13 NNE 1020,1 47 38 0,0
04.07.2020 20:00:00 26,2 11,5 27,3 25,5 14 8 26 14 NNE 1019,4 42 23 0,0
04.07.2020 19:00:00 27,2 11,6 30,0 25,2 12 7 27 15 N 1019,2 34 60 0,0
04.07.2020 18:00:00 27,1 11,6 33,3 24,9 16 8 31 17 NNE 1019,7 34 60 0,0
04.07.2020 17:00:00 26,9 11,0 33,1 24,5 11 6 40 22 NE 1019,9 39 60 0,0
04.07.2020 16:00:00 26,4 11,3 32,5 24,1 16 9 35 19 NNE 1020,1 50 60 0,0
04.07.2020 15:00:00 26,0 11,4 32,4 23,7 11 6 31 17 N 1020,5 44 60 0,0
04.07.2020 14:00:00 24,7 10,9 31,8 23,4 12 7 34 18 NW 1021,1 43 60 0,0
04.07.2020 13:00:00 24,1 10,7 31,6 23,3 16 8 32 17 N 1021,7 20 60 0,0
04.07.2020 12:00:00 23,3 10,4 29,5 23,2 16 9 32 18 N 1022,0 39 60 0,0
04.07.2020 11:00:00 22,3 10,1 27,6 23,2 19 10 32 18 N 1022,1 38 60 0,0
04.07.2020 10:00:00 21,1 10,3 24,1 23,3 19 10 35 19 NNW 1022,2 42 60 0,0
04.07.2020 09:00:00 19,9 10,0 21,7 23,4 16 9 26 14 NNW 1022,5 50 60 0,0
04.07.2020 08:00:00 18,5 10,1 13,0 23,6 8 4 14 8 NNW 1022,2 56 60 0,0
04.07.2020 07:00:00 14,4 10,2 11,1 23,9 0 0 9 5 N 1022,2 45 38 0,0
04.07.2020 06:00:00 13,8 9,8 10,1 24,1 4 2 6 4 NE 1021,9 47 0 0,0
04.07.2020 05:00:00 14,8 9,6 10,7 24,2 6 3 8 4 NE 1021,5 43 0 0,0
04.07.2020 04:00:00 15,4 9,1 10,9 24,5 3 2 11 6 NW 1021,5 50 0 0,0
04.07.2020 03:00:00 16,7 9,4 12,9 24,7 6 3 12 6 NW 1021,3 52 0 0,0
04.07.2020 02:00:00 18,0 9,6 14,6 24,9 8 4 23 12 WNW 1021,1 58 0 0,0
04.07.2020 01:00:00 19,5 9,7 17,0 25,0 16 9 24 13 NW 1020,9 53 0 0,0
04.07.2020 00:00:00 19,3 9,8 17,0 25,2 13 7 21 11 NNW 1020,8 55 0 0,0
03.07.2020 23:00:00 20,2 10,0 18,6 25,3 13 7 23 13 NNW 1020,4 54 0 0,0
03.07.2020 22:00:00 20,8 10,0 19,3 25,3 17 9 32 18 NNW 1019,7 58 6 0,0
03.07.2020 21:00:00 22,1 9,6 21,4 25,3 22 12 37 20 NNW 1019,2 44 60 0,0
03.07.2020 20:00:00 23,8 9,8 25,8 25,2 30 16 44 24 NNW 1018,5 18 60 0,0
03.07.2020 19:00:00 24,2 9,0 27,8 25,1 26 14 45 25 NNW 1018,3 22 58 0,0
03.07.2020 18:00:00 24,2 8,6 26,9 24,8 26 14 44 24 N 1018,3 25 52 0,0
03.07.2020 17:00:00 24,4 9,2 27,7 24,5 29 15 51 27 NNW 1018,3 30 57 0,0
03.07.2020 16:00:00 23,8 9,8 25,0 24,2 30 16 49 26 NNW 1018,7 41 43 0,0
03.07.2020 15:00:00 24,6 8,9 24,8 24,0 26 14 48 26 NNW 1018,6 21 46 0,0
03.07.2020 14:00:00 24,2 10,5 24,2 23,8 26 14 46 25 NNW 1019,2 22 48 0,0
03.07.2020 13:00:00 23,7 11,1 24,0 23,6 25 14 45 25 N 1019,4 17 55 0,0
03.07.2020 12:00:00 22,2 10,0 25,1 23,5 24 13 39 21 NNW 1019,6 18 52 0,0
03.07.2020 11:00:00 21,7 10,5 25,1 23,5 22 12 35 19 NNW 1019,4 20 60 0,0
03.07.2020 10:00:00 20,7 11,9 23,9 23,6 22 12 35 19 N 1019,6 23 60 0,0
03.07.2020 09:00:00 19,2 11,0 20,8 23,8 16 9 32 18 NNW 1019,6 37 60 0,0
03.07.2020 08:00:00 17,9 10,3 15,6 24,0 14 8 25 13 NNW 1020,0 40 60 0,0
03.07.2020 07:00:00 16,6 10,4 14,6 24,2 8 4 14 8 N 1019,8 42 38 0,0
03.07.2020 06:00:00 16,8 10,4 14,8 24,4 11 6 15 8 NNW 1019,5 49 0 0,0
03.07.2020 05:00:00 17,6 10,7 16,6 24,6 9 5 17 9 N 1019,2 57 0 0,0
03.07.2020 04:00:00 18,1 10,5 17,3 24,8 10 6 17 9 NNW 1019,1 57 0 0,0
03.07.2020 03:00:00 18,3 11,4 13,8 25,0 9 5 15 8 NNW 1019,1 54 0 0,0
03.07.2020 02:00:00 17,2 10,6 13,7 25,2 7 4 13 7 N 1019,0 55 0 0,0
03.07.2020 01:00:00 18,7 10,8 16,8 25,4 11 6 21 11 NNW 1018,9 56 0 0,0
03.07.2020 00:00:00 19,9 11,9 18,5 25,6 16 9 26 14 NNW 1018,5 55 0 0,0
02.07.2020 23:00:00 20,8 12,2 19,9 25,7 13 7 24 13 NNW 1017,9 58 0 0,0
02.07.2020 22:00:00 21,5 12,1 20,8 25,9 16 9 26 14 NNW 1017,5 50 0 0,0
02.07.2020 21:00:00 21,8 11,5 21,2 25,9 14 8 34 19 NNW 1016,7 54 0 0,0
02.07.2020 20:00:00 22,7 12,3 22,5 25,9 25 14 40 21 NNW 1016,3 36 0 0,0
02.07.2020 19:00:00 23,7 13,3 23,7 25,8 22 12 46 25 N 1015,2 31 16 0,0
02.07.2020 18:00:00 26,4 15,4 26,1 25,6 21 12 41 22 N 1013,7 34 36 0,0
02.07.2020 17:00:00 26,5 16,4 29,1 25,3 16 9 34 18 N 1013,4 60 37 0,0
02.07.2020 16:00:00 26,4 16,6 28,6 25,0 14 7 27 14 N 1013,5 40 30 0,0
02.07.2020 15:00:00 26,1 17,2 31,1 24,8 8 4 23 12 NE 1013,8 54 42 0,0
02.07.2020 14:00:00 25,3 17,0 26,8 24,5 14 8 26 14 N 1014,3 18 27 0,0
02.07.2020 13:00:00 25,2 17,7 30,7 24,3 10 5 33 18 N 1014,4 20 43 0,0
02.07.2020 12:00:00 24,9 17,9 26,9 24,3 11 6 22 12 N 1014,4 47 27 0,0
02.07.2020 11:00:00 24,3 15,8 25,7 24,2 8 5 20 11 NNE 1014,5 46 38 0,0
02.07.2020 10:00:00 24,0 15,8 24,6 24,3 13 7 25 14 NW 1014,5 38 38 0,0
02.07.2020 09:00:00 22,8 15,9 23,0 24,3 11 6 17 9 NNW 1014,5 35 12 0,0
02.07.2020 08:00:00 21,4 18,6 21,0 24,4 6 3 9 5 N 1014,3 23 0 0,0
02.07.2020 07:00:00 20,7 18,5 20,1 24,6 3 1 8 4 ENE 1014,1 22 0 0,0
02.07.2020 06:00:00 20,5 18,4 19,9 24,7 4 2 8 5 SSW 1014,1 26 0 0,0

tt = temperature
td = dewpoint
tt 5cm = temperature 5cm
tt -20cm = temperature -20cm
ff = wind speed
fx = gusts
dd = wind direction
ppp = reduced air pressure
vv = visibility
sd = sunshine duration
rr = precipitation

Next stations